Regional Weather Roundup
Issued by NWS Little Rock, AR

Home | Current Version | Previous Version | Graphics & Text | Print | Product List | Glossary On
Versions: 1 2 3 4 5 6 7 8 9 10 11 12 13 14 15 16 17 18 19 20 21 22 23 24 25 26 27 28 29 30 31 32 33 34 35 36 37 38 39 40 41 42 43 44 45 46 47 48
651
ASUS44 KLZK 310805
RWRLZK

WEATHER ROUNDUP FOR ARKANSAS
NATIONAL WEATHER SERVICE LITTLE ROCK AR
300 AM CDT WED AUG 31 2016

NOTE: "FAIR" INDICATES FEW OR NO CLOUDS BELOW 12,000 FEET WITH NO
SIGNIFICANT WEATHER AND/OR OBSTRUCTIONS TO VISIBILITY.

ARZ001-003-010-029-310900-
NORTHWEST ARKANSAS

CITY           SKY/WX    TMP DP  RH WIND       PRES   REMARKS
FAYETTEVILLE   PTCLDY    69  69 100 CALM      30.09S
FORT SMITH     CLEAR     76  72  87 E3        30.03F
HARRISON       PTCLDY    69  68  96 CALM      30.10S FOG
BENTONVILLE    PTCLDY    73  66  78 CALM      30.09S
ROGERS         PTCLDY    71  69  93 NE5       30.10S
SILOAM SPGS    MOCLDY   N/A N/A N/A CALM      30.07S
HIGHFILL       CLOUDY    74  72  93 NE3       30.09S
$$

ARZ004-005-016-310900-
NORTH CENTRAL ARKANSAS

CITY           SKY/WX    TMP DP  RH WIND       PRES   REMARKS
BATESVILLE     CLEAR     73  72  94 CALM      30.05S
FLIPPIN        CLEAR     73  68  83 CALM      30.05S
MTN HOME       CLEAR     73  71  93 CALM      30.07S
$$

ARZ040-041-310900-
WEST CENTRAL ARKANSAS

CITY           SKY/WX    TMP DP  RH WIND       PRES   REMARKS
MENA           CLEAR     72  72 100 CALM      30.06F
MOUNT IDA      CLEAR     73  71  93 CALM      30.02F FOG
$$

ARZ009-017-025-026-028-310900-
NORTHEAST ARKANSAS

CITY           SKY/WX    TMP DP  RH WIND       PRES   REMARKS
JONESBORO      CLEAR     76  71  85 NE9       30.02S
NEWPORT        CLEAR     75  73  93 N7        30.03S
WALNUT RIDGE   CLEAR     73  70  88 NE7       30.03S
BLYTHEVILLE    CLEAR     76  74  93 NE6       30.02F
$$

ARZ022-023-033-042-044-310900-
CENTRAL ARKANSAS

CITY           SKY/WX    TMP DP  RH WIND       PRES   REMARKS
LITTLE ROCK    CLEAR     79  72  79 CALM      30.01S
N LITTLE ROCK    N/A     76  72  86 CALM      29.99S
SEARCY         CLEAR     77  75  93 N6        30.04R
HOT SPRINGS    CLEAR     75  72  90 CALM      30.03S
RUSSELLVILLE   CLEAR     73  73 100 CALM      30.03S FOG
$$

ARZ036-310900-
EAST ARKANSAS

CITY           SKY/WX    TMP DP  RH WIND       PRES   REMARKS
WEST MEMPHIS   CLEAR     75  72  90 N3        30.00R
$$

ARZ050-053-066-070-073-310900-
SOUTHWEST ARKANSAS

CITY           SKY/WX    TMP DP  RH WIND       PRES   REMARKS
ARKADELPHIA    FAIR      74  73  97 CALM      30.01S FOG
TEXARKANA      CLEAR     76  74  93 CALM      30.00F FOG
EL DORADO      CLEAR     75  73  93 N3        29.99S
DE QUEEN       FOG       73  73 100 CALM      30.00S VSB 3/4
$$

ARZ056-057-069-310900-
SOUTHEAST ARKANSAS

CITY           SKY/WX    TMP DP  RH WIND       PRES   REMARKS
PINE BLUFF     CLEAR     75  74  96 CALM      30.00S
STUTTGART      CLEAR     75  70  83 N7        30.01S
MONTICELLO     CLEAR     79  73  82 CALM      29.99S

$$






USA.gov is the U.S. government's official web portal to all federal, state and local government web resources and services.